Location: Gleizolles
(44.4833°N, 6.7667°E)
Time: 15:41:56
(UTC+00:00)

Altair - Pass Details

Date: 27 June 2024
Orbit: 1502 x 1681 km, 47.2° (Epoch: 13 July)

Event Time Altitude Azimuth Distance (km) Brightness Sun altitude
Rises 22:48:31 0° 214° (SSW) 4,626 - -21.4°
Reaches altitude 10° 22:51:42 10° 208° (SSW) 3,644 - -21.5°
Exits shadow 22:56:38 32° 185° (S) 2,355 7.9 -21.6°
Maximum altitude 23:00:10 44° 139° (SE) 1,979 7.7 -21.7°
Drops below altitude 10° 23:08:46 10° 72° (ENE) 3,706 9.6 -22.0°
Sets 23:12:01 0° 66° (ENE) 4,712 10.3 -22.0°
